Upthegrove Elementary School FL US WEATHERSTEM current weather conditions

sailwx.info

Air temperature 20.8° C
Dewpoint 10.8° C

Last reported at 2019-Dec-16 00:00 UTC.
Time now 2019-Dec-16 00:29 UTC

Location: N 26°46' W 081°26'.
View on Google Maps.

See reports from other nearby stations

  
Tides and Currents Weather Stations Pressure Air Temp Water Temp Dewpoint Dewpoint Depression Visibility Wind Speed Wind Dir Waves Ship Positions
date/time (UTC)wind fromknots sea level pressurealtimeterstation pressurevisibilityair tempwater tempwave heightnotes
2019-Dec-16 00:00 20.8
2019-Dec-15 23:50 21.1
2019-Dec-15 23:40 21.3
2019-Dec-15 23:30 21.6
2019-Dec-15 23:20 21.9
2019-Dec-15 23:10 22.2
2019-Dec-15 23:00 22.6
2019-Dec-15 22:50 23.0
2019-Dec-15 22:40 23.2
2019-Dec-15 22:30 092 0 gusting 3 23.5
2019-Dec-15 22:20 23.8
2019-Dec-15 22:10 092 1 gusting 6 24.1
2019-Dec-15 22:00 092 0 gusting 6 24.2
2019-Dec-15 21:50 103 1 gusting 5 24.3
2019-Dec-15 21:40 104 2 gusting 6 24.4
2019-Dec-15 21:30 098 2 gusting 7 24.4
2019-Dec-15 21:20 130 3 gusting 9 24.6
2019-Dec-15 21:10 091 2 gusting 8 24.6
2019-Dec-15 21:00 090 5 gusting 6 24.7
2019-Dec-15 20:50 096 2 gusting 8 24.7
2019-Dec-15 20:40 082 2 gusting 8 24.8
2019-Dec-15 20:30 074 2 gusting 7 24.7
2019-Dec-15 20:20 121 4 gusting 9 24.6
2019-Dec-15 20:10 130 6 gusting 8 24.6
2019-Dec-15 20:00 146 4 gusting 10 24.6
2019-Dec-15 19:50 123 1 gusting 8 24.8
2019-Dec-15 19:40 107 3 gusting 8 24.7
2019-Dec-15 19:30 084 3 gusting 12 24.6
2019-Dec-15 19:20 093 0 gusting 11 24.7
2019-Dec-15 19:10 089 3 gusting 11 24.5
2019-Dec-15 19:00 118 2 gusting 11 24.4
2019-Dec-15 18:50 113 3 gusting 10 24.4
2019-Dec-15 18:20 105 6 gusting 12 24.2
2019-Dec-15 18:10 138 3 gusting 12 23.8
2019-Dec-15 18:00 096 6 gusting 10 23.6
2019-Dec-15 17:50 112 5 gusting 10 23.3
2019-Dec-15 17:40 124 8 gusting 10 23.1
2019-Dec-15 17:30 103 5 gusting 9 22.9
2019-Dec-15 17:20 107 6 gusting 8 22.8
2019-Dec-15 17:10 080 3 gusting 11 22.4
2019-Dec-15 17:00 121 6 gusting 11 22.1
2019-Dec-15 16:50 067 2 gusting 9 21.6
2019-Dec-15 16:40 126 6 gusting 9 21.1
2019-Dec-15 16:30 121 4 gusting 10 20.6
2019-Dec-15 16:20 090 2 gusting 8 20.1
2019-Dec-15 16:10 067 1 gusting 6 19.7
2019-Dec-15 16:00 060 1 gusting 6 19.2
2019-Dec-15 15:50 105 2 gusting 7 18.5
2019-Dec-15 15:40 074 4 gusting 4 17.9
2019-Dec-15 15:30 083 2 gusting 4 17.6
2019-Dec-15 15:20 090 1 gusting 6 16.8
2019-Dec-15 15:10 099 1 gusting 6 16.2
2019-Dec-15 15:00 043 5 gusting 6 15.5
2019-Dec-15 14:50 042 2 gusting 5 14.9
2019-Dec-15 14:40 055 2 gusting 5 14.2
2019-Dec-15 14:30 055 0 gusting 7 13.6
2019-Dec-15 14:20 032 3 gusting 6 13.2
2019-Dec-15 14:10 053 6 gusting 6 12.8
2019-Dec-15 14:00 051 2 gusting 5 12.3
2019-Dec-15 13:50 028 5 gusting 6 11.8
2019-Dec-15 13:40 306 0 gusting 3 11.2
2019-Dec-15 13:20 301 0 gusting 2 10.3
2019-Dec-15 13:10 9.7
2019-Dec-15 13:00 9.3
2019-Dec-15 12:50 9.2
2019-Dec-15 12:40 9.0
2019-Dec-15 12:30 8.9
2019-Dec-15 12:20 8.9
2019-Dec-15 12:10 8.9
2019-Dec-15 12:00 8.8
2019-Dec-15 11:50 8.9
2019-Dec-15 11:40 8.9
2019-Dec-15 11:30 9.1
2019-Dec-15 11:20 9.1
2019-Dec-15 11:10 9.1
2019-Dec-15 11:00 9.1
2019-Dec-15 10:50 9.2
2019-Dec-15 10:40 9.3
2019-Dec-15 10:30 9.4
2019-Dec-15 10:20 9.6
2019-Dec-15 10:10 9.7
2019-Dec-15 10:00 9.8
2019-Dec-15 09:50 9.9
2019-Dec-15 09:40 10.0
2019-Dec-15 09:30 10.1
2019-Dec-15 09:20 10.2
2019-Dec-15 09:10 10.3
2019-Dec-15 09:00 10.4
2019-Dec-15 08:50 10.6
2019-Dec-15 08:40 10.7
2019-Dec-15 08:30 10.8
2019-Dec-15 08:20 11.0
2019-Dec-15 08:10 11.2
2019-Dec-15 08:00 11.3
2019-Dec-15 07:50 11.4
2019-Dec-15 07:40 11.6
2019-Dec-15 07:30 11.7
2019-Dec-15 07:20 11.8
2019-Dec-15 07:10 11.7
2019-Dec-15 07:00 11.8
2019-Dec-15 06:50 12.0
2019-Dec-15 06:40 12.1
2019-Dec-15 06:30 12.1
2019-Dec-15 06:20 12.2
2019-Dec-15 06:10 12.3
2019-Dec-15 06:00 12.4
2019-Dec-15 05:50 12.6
2019-Dec-15 05:40 12.8
2019-Dec-15 05:30 12.8
2019-Dec-15 05:20 13.1
2019-Dec-15 05:10 13.2
2019-Dec-15 05:00 13.3
2019-Dec-15 04:50 13.5
2019-Dec-15 04:40 13.6
2019-Dec-15 04:30 13.7
2019-Dec-15 04:20 13.9
2019-Dec-15 04:10 14.2
2019-Dec-15 04:00 14.5
2019-Dec-15 03:50 14.7
2019-Dec-15 03:40 14.9
2019-Dec-15 03:30 15.2
2019-Dec-15 03:20 15.4
2019-Dec-15 03:10 15.6
2019-Dec-15 03:00 15.7
2019-Dec-15 02:50 15.9
2019-Dec-15 02:40 16.2
2019-Dec-15 02:30 16.5
2019-Dec-15 02:20 16.7
2019-Dec-15 02:10 16.9
2019-Dec-15 02:00 17.2
2019-Dec-15 01:50 17.5
2019-Dec-15 01:40 17.7
2019-Dec-15 01:30 17.9
2019-Dec-15 01:20 18.2
2019-Dec-15 01:10 18.4
2019-Dec-15 01:00 18.6
2019-Dec-15 00:50 18.7
2019-Dec-15 00:40 18.9
2019-Dec-15 00:30 19.2
2019-Dec-15 00:20 19.4
2019-Dec-15 00:10 300 0 gusting 4 19.7
2019-Dec-15 00:00 298 4 gusting 6 19.9
2019-Dec-14 23:50 20.2
2019-Dec-14 23:40 288 0 gusting 4 20.5
2019-Dec-14 23:30 20.9
2019-Dec-14 23:20 21.2
2019-Dec-14 23:10 278 2 gusting 3 21.4
2019-Dec-14 23:00 21.8
2019-Dec-14 22:50 267 22.2
2019-Dec-14 22:40 271 2 gusting 6 22.6
2019-Dec-14 22:30 302 1 gusting 7 23.0
2019-Dec-14 22:20 277 1 gusting 9 23.4
2019-Dec-14 22:10 309 6 gusting 7 23.9
2019-Dec-14 22:00 259 0 gusting 7 24.2
2019-Dec-14 21:50 339 3 gusting 10 24.5
2019-Dec-14 21:40 248 6 gusting 8 24.9
2019-Dec-14 21:30 255 3 gusting 7 25.2
2019-Dec-14 21:20 251 1 gusting 8 25.3
2019-Dec-14 21:00 256 4 gusting 8 25.6
2019-Dec-14 20:50 275 8 gusting 12 25.6
2019-Dec-14 20:40 256 8 gusting 13 25.7
2019-Dec-14 20:30 238 5 gusting 11 25.8
2019-Dec-14 20:20 255 4 gusting 8 25.4
2019-Dec-14 20:10 319 2 gusting 9 25.4
2019-Dec-14 20:00 288 3 gusting 11 25.8
2019-Dec-14 19:40 258 0 gusting 15 26.0
2019-Dec-14 19:30 302 1 gusting 6 25.8
2019-Dec-14 19:20 298 2 gusting 6 25.6
2019-Dec-14 19:10 321 4 gusting 9 26.3
2019-Dec-14 19:00 275 6 gusting 15 26.4
2019-Dec-14 18:50 248 7 gusting 12 26.2
2019-Dec-14 18:40 259 1 gusting 13 25.7
2019-Dec-14 18:30 268 5 gusting 14 25.5
2019-Dec-14 18:20 273 1 gusting 13 25.3
2019-Dec-14 18:10 246 2 gusting 14 25.1
2019-Dec-14 18:00 263 5 gusting 14 25.0
2019-Dec-14 17:50 262 5 gusting 13 24.8
2019-Dec-14 17:40 242 5 gusting 12 24.6
2019-Dec-14 17:30 257 7 gusting 9 24.5
2019-Dec-14 17:20 250 3 gusting 12 24.4
2019-Dec-14 17:10 254 4 gusting 12 24.3
2019-Dec-14 17:00 252 1 gusting 7 23.9
2019-Dec-14 16:50 265 2 gusting 8 23.3
2019-Dec-14 16:40 247 2 gusting 6 22.7
2019-Dec-14 16:30 22.3
2019-Dec-14 16:20 236 3 gusting 10 22.1
2019-Dec-14 16:10 232 1 gusting 7 21.8
2019-Dec-14 16:00 244 2 gusting 8 21.7
2019-Dec-14 15:50 254 1 gusting 6 21.7
2019-Dec-14 15:40 259 0 gusting 7 21.6
2019-Dec-14 15:30 246 0 gusting 6 21.6
2019-Dec-14 15:20 238 4 gusting 12 21.9
2019-Dec-14 15:10 238 3 gusting 18 22.8
2019-Dec-14 15:00 258 6 gusting 8 23.7
2019-Dec-14 14:50 220 6 gusting 15 23.4
2019-Dec-14 14:40 248 2 gusting 10 23.2
2019-Dec-14 14:30 224 2 gusting 6 23.1
2019-Dec-14 14:20 217 2 gusting 8 22.9
2019-Dec-14 14:10 219 6 gusting 8 22.8
2019-Dec-14 14:00 248 4 gusting 9 22.8
2019-Dec-14 13:50 225 3 gusting 6 22.6
2019-Dec-14 13:40 209 2 gusting 9 22.1
2019-Dec-14 13:30 214 4 gusting 9 21.6
2019-Dec-14 13:20 217 3 gusting 8 21.3
2019-Dec-14 13:10 232 1 gusting 7 20.9
2019-Dec-14 13:00 216 3 gusting 4 20.8
2019-Dec-14 12:50 216 3 gusting 6 20.6
2019-Dec-14 12:40 214 0 gusting 5 20.3
2019-Dec-14 12:30 213 0 gusting 4 20.3
2019-Dec-14 12:20 212 1 gusting 3 20.2
2019-Dec-14 12:10 213 3 gusting 5 20.2
2019-Dec-14 12:00 213 0 gusting 3 20.1
2019-Dec-14 11:50 213 0 gusting 3 20.1
2019-Dec-14 11:40 214 1 gusting 4 20.0
2019-Dec-14 11:30 218 0 gusting 3 19.9
2019-Dec-14 11:20 20.0
2019-Dec-14 10:50 220 1 gusting 5 20.2
2019-Dec-14 10:40 220 2 gusting 5 20.2
2019-Dec-14 10:30 20.2
2019-Dec-14 10:20 194 1 gusting 5 20.2
2019-Dec-14 10:10 186 1 gusting 6 20.3
2019-Dec-14 10:00 183 0 gusting 5 20.3
2019-Dec-14 09:50 188 0 gusting 5 20.3
2019-Dec-14 09:30 182 1 gusting 6 20.3
2019-Dec-14 09:20 176 1 gusting 4 20.3
2019-Dec-14 09:00 20.2
2019-Dec-14 08:50 174 0 gusting 3 20.2
2019-Dec-14 08:40 174 2 gusting 3 20.1
2019-Dec-14 08:30 174 0 gusting 2 20.0
2019-Dec-14 08:20 174 0 gusting 3 19.9
2019-Dec-14 08:10 174 2 gusting 6 19.9
2019-Dec-14 08:00 19.8
2019-Dec-14 07:50 19.8
2019-Dec-14 07:40 175 1 gusting 1 19.9
2019-Dec-14 07:30 175 1 gusting 3 20.0
2019-Dec-14 07:20 20.1
2019-Dec-14 07:10 175 1 gusting 4 20.1
2019-Dec-14 07:00 175 0 gusting 4 20.1
2019-Dec-14 06:50 175 1 gusting 4 20.1
2019-Dec-14 06:40 175 1 gusting 4 20.2
2019-Dec-14 06:30 175 2 gusting 3 20.2
2019-Dec-14 06:20 175 1 gusting 3 20.2
2019-Dec-14 06:10 175 0 gusting 2 20.0
2019-Dec-14 06:00 19.9
2019-Dec-14 05:50 19.9
2019-Dec-14 05:40 19.9
2019-Dec-14 05:30 20.1
2019-Dec-14 05:20 20.1
2019-Dec-14 05:10 20.2
2019-Dec-14 05:00 20.2
2019-Dec-14 04:50 20.3
2019-Dec-14 04:40 20.3
2019-Dec-14 04:30 20.4
2019-Dec-14 04:20 20.4
2019-Dec-14 04:10 20.6
2019-Dec-14 04:00 20.6
2019-Dec-14 03:50 20.7
2019-Dec-14 03:40 20.8
2019-Dec-14 03:30 175 0 gusting 2 20.8
2019-Dec-14 03:20 20.9
2019-Dec-14 03:10 175 0 gusting 3 20.9
2019-Dec-14 03:00 174 1 gusting 2 21.1
2019-Dec-14 02:50 21.3
2019-Dec-14 02:40 21.4
2019-Dec-14 02:30 21.6
2019-Dec-14 02:20 174 0 gusting 2 21.6
2019-Dec-14 02:10 174 0 gusting 5 21.7
2019-Dec-14 02:00 175 1 gusting 6 21.7
2019-Dec-14 01:50 186 21.7
2019-Dec-14 01:40 186 3 gusting 3 21.8
2019-Dec-14 01:30 185 0 gusting 3 21.8
2019-Dec-14 01:20 186 0 gusting 5 21.9
2019-Dec-14 01:10 190 22.1
2019-Dec-14 01:00 22.2
2019-Dec-14 00:50 223 22.3
2019-Dec-14 00:40 220 1 gusting 4 22.4
2019-Dec-14 00:30 202 0 gusting 5 22.4
2019-Dec-14 00:20 172 22.4
2019-Dec-14 00:10 170 22.5
2019-Dec-14 00:00 22.6